This is the latest recevied weather packets stored in our database for station/object NK2J. If no packets are shown the sender has not sent any weather packets the latest 10 day(s).
| Time | Temp. | Humidity | Pressure | Rain* | Wind** | Luminosity | Snow |
|---|---|---|---|---|---|---|---|
| 1777530393 | 22.78° C | 21% | 1013.8 hPa | 0 mm | - | 0 W/m² | - |
| 1777530088 | 22.78° C | 21% | 1014 hPa | 0 mm | - | 0 W/m² | - |
| 1777529786 | 22.78° C | 21% | 1013.9 hPa | 0 mm | - | 0 W/m² | - |
| 1777529482 | 22.78° C | 20% | 1013.8 hPa | 0 mm | - | 0 W/m² | - |
| 1777529180 | 23.33° C | 20% | 1013.5 hPa | 0 mm | - | 0 W/m² | - |
| 1777528875 | 23.89° C | 19% | 1014 hPa | 0 mm | - | 0 W/m² | - |
| 1777528572 | 23.89° C | 19% | 1014.1 hPa | 0 mm | - | 0 W/m² | - |
| 1777528270 | 23.33° C | 18% | 1014.1 hPa | 0 mm | - | 0 W/m² | - |
| 1777527968 | 23.33° C | 20% | 1014.1 hPa | 0 mm | - | 0 W/m² | - |
| 1777527663 | 23.33° C | 19% | 1014.1 hPa | 0 mm | - | 0 W/m² | - |
| 1777527358 | 23.33° C | 20% | 1014.1 hPa | 0 mm | - | 0 W/m² | - |
| 1777527054 | 22.78° C | 19% | 1014.1 hPa | 0 mm | - | 0 W/m² | - |
| 1777526750 | 22.78° C | 19% | 1014.2 hPa | 0 mm | - | 0 W/m² | - |
| 1777526446 | 22.78° C | 19% | 1014.1 hPa | 0 mm | - | 0 W/m² | - |
| 1777526145 | 22.78° C | 20% | 1014 hPa | 0 mm | - | 0 W/m² | - |
| 1777525842 | 23.33° C | 19% | 1014 hPa | 0 mm | - | 0 W/m² | - |
| 1777525540 | 23.89° C | 19% | 1013.9 hPa | 0 mm | - | 0 W/m² | - |
| 1777525237 | 23.89° C | 19% | 1014.2 hPa | 0 mm | - | 0 W/m² | - |
| 1777524932 | 24.44° C | 18% | 1013.8 hPa | 0 mm | - | 0 W/m² | - |
| 1777524630 | 25° C | 17% | 1013.9 hPa | 0 mm | - | 0 W/m² | - |
| 1777524329 | 25° C | 18% | 1014.1 hPa | 0 mm | - | 0 W/m² | - |
| 1777524024 | 25° C | 17% | 1013.9 hPa | 0 mm | - | 0 W/m² | - |
| 1777523720 | 25.56° C | 18% | 1013.9 hPa | 0 mm | - | 0 W/m² | - |
| 1777523417 | 25.56° C | 17% | 1013.8 hPa | 0 mm | - | 0 W/m² | - |
| 1777523114 | 25° C | 18% | 1014 hPa | 0 mm | - | 0 W/m² | - |
* Rain latest hour (hover to see other rain measurements)
** Current wind speed in m/s (hover to see current wind gust speed)